Regional Weather Roundup
Issued by NWS

Home | Current Version | Previous Version | Text Only | Print | Product List | Glossary Off
Versions: 1 2 3 4 5 6 7 8 9 10 11 12 13 14 15 16 17 18 19 20 21 22 23 24 25 26 27 28 29 30 31 32 33 34 35 36 37 38 39 40 41 42 43 44 45 46 47 48 49 50

000
ASUS43 KDTX 171510
RWRMI
MICHIGAN HOURLY REGIONAL WEATHER ROUNDUP
NATIONAL WEATHER SERVICE DETROIT/PONTIAC MI
1000 AM EST FRI NOV 17 2017

NOTE: "FAIR" INDICATES FEW OR NO CLOUDS BELOW 12,000 FEET WITH NO
SIGNIFICANT WEATHER AND/OR OBSTRUCTION TO VISIBILITY.

MIZ047>049-052>055-059>063-066>070-074>076-081>083-171600-
SOUTHEAST LOWER MICHIGAN

CITY           SKY/WX    TMP DP  RH WIND       PRES   REMARKS
ADRIAN         CLOUDY    37  29  72 S14       30.20F WCI  28
ALMA           CLOUDY    33  30  90 SE8       30.16F WCI  26
ANN ARBOR      CLOUDY    36  29  75 SE6       30.21F WCI  31
BAD AXE        PTSUNNY   32  25  75 S9        30.23S WCI  24
CARO           CLOUDY    31  26  80 SE3       30.21F
DETROIT CITY   CLOUDY    37  28  70 SE8       30.23F WCI  31
DETROIT        CLOUDY    37  29  72 SE9       30.24F WCI  30
FLINT          CLOUDY    35  27  72 S10       30.20F WCI  27
GROSSE ILE     CLOUDY    36  29  75 SE9       30.23F WCI  29
HILLSDALE      CLOUDY    34  28  80 S13G20    30.15F WCI  25
HOWELL         CLOUDY    35  29  79 SE12      30.17F WCI  27

CITY           SKY/WX    TMP DP  RH WIND       PRES   REMARKS
JACKSON        CLOUDY    36  28  73 SE10      30.18F WCI  28
LAMBERTVILLE   CLOUDY    40  29  65 SE8       30.22F WCI  35
LANSING        CLOUDY    35  29  78 S12       30.18F WCI  27
LAPEER         FAIR      33  26  77 SE5       30.21F WCI  28
MASON          CLOUDY    36  30  79 SE12G20   30.16F WCI  28
MONROE         CLOUDY    39  29  66 S10       30.22F WCI  32
MT. CLEMENS    CLOUDY    36  29  75 SE9       30.22F WCI  29
PONTIAC        CLOUDY    35  27  72 SE10      30.20F WCI  27
PORT HOPE        N/A     33  25  72 VRB6      30.22F WCI  28
PORT HURON     CLOUDY    34  25  69 S6        30.24F WCI  29
TRI CITIES     CLOUDY    33  29  85 SE7       30.21F WCI  27
MIDLAND        CLOUDY    32  27  82 E9        30.17F WCI  24
TROY           CLOUDY    38  29  67 SE6       30.24F WCI  34
SAGINAW HB     CLOUDY    32  28  86 SE6       30.20F WCI  26
$$
MIZ043>046-050>051-056>058-064>065-071>073-077>080-171600-
SOUTHWEST LOWER MICHIGAN

CITY           SKY/WX    TMP DP  RH WIND       PRES   REMARKS
BATTLE CREEK   CLOUDY    37  30  75 S14       30.14F WCI  28
BENTON HARBOR  CLOUDY    38  30  73 SE17G26   30.10F WCI  28
BIG RAPIDS     MOSUNNY   32  27  82 SE12      30.12F WCI  23
COLDWATER      PTSUNNY   36  30  79 S12G20    30.16F WCI  28
FREMONT        CLOUDY    33  31  90 SE8       30.11F WCI  27
HOLLAND        CLOUDY    37  31  78 S13       30.11F WCI  29
GRAND RAPIDS   CLOUDY    35  31  85 SE13      30.13F WCI  26
IONIA          PTSUNNY   35  30  82 SE14      30.14F WCI  26
KALAMAZOO      CLOUDY    37  29  72 S13G20    30.13F WCI  29
LUDINGTON      CLOUDY    34  29  82 SE15      30.09F WCI  24
MARSHALL       CLOUDY    35  29  79 SE9       30.15F WCI  28
MOUNT PLEASANT CLOUDY    32  27  80 S5        30.16F WCI  27
MUSKEGON       CLOUDY    36  30  79 SE10      30.11F WCI  28
SOUTH HAVEN    PTSUNNY   38  31  78 S14       30.11F WCI  29
$$
MIZ016>042-171600-
NORTHERN LOWER MICHIGAN

CITY           SKY/WX    TMP DP  RH WIND       PRES   REMARKS
ALPENA         CLOUDY    32  25  75 S9        30.19F WCI  24
BEAVER ISLAND  CLOUDY    33  29  86 SE8G17    30.08F WCI  26
BELLAIRE       CLOUDY    31  27  84 S8        30.12F WCI  24
CADILLAC       CLOUDY    30  26  87 S9        30.08F WCI  21
CHARLEVOIX     CLOUDY    31  25  78 SE10      30.14F WCI  22
FRANKFORT      CLOUDY    34  28  79 SE12G18   30.07F WCI  26
GAYLORD        MIX PCPN  26  22  84 SE13      30.09F WCI  15
GRAYLING       FLURRIES  28  23  81 S6        30.15R WCI  22
HARBOR SPRINGS CLOUDY    29  24  79 E5        30.12F WCI  24
HOUGHTON LAKE  CLOUDY    28  23  81 S7G16     30.15F WCI  21
MANISTEE       CLOUDY    34  28  79 SE10      30.09F WCI  26
OSCODA         CLOUDY    32  24  73 S6        30.19F WCI  26
PELLSTON       CLOUDY    29  23  78 SE9       30.12F WCI  20
ROGERS CITY    CLOUDY    31  24  77 SE12      30.19S WCI  21
TRAVERSE CITY  CLOUDY    32  25  75 VRB7G17   30.11F WCI  26
$$
MIZ007>008-015-171600-
EASTERN UPPER MICHIGAN

CITY           SKY/WX    TMP DP  RH WIND       PRES   REMARKS
KINROSS        CLOUDY    29  25  85 S14G20    30.12F WCI  18
MACKINAC ISLAN CLOUDY    31  24  73 SE16G28   30.11F WCI  20
NEWBERRY       CLOUDY    29  27  92 SE14G24   30.05F WCI  19
S. S. MARIE    CLOUDY    26  20  77 E10G18    30.12F WCI  16
MUNISING         N/A     34  31  88 S14G23    29.97F WCI  25
$$
MIZ004>006-011>014-085-171600-
CENTRAL UPPER MICHIGAN

CITY           SKY/WX    TMP DP  RH WIND       PRES   REMARKS
MANISTIQUE     CLOUDY    34  30  83 S10G17    30.02F WCI  26
ESCANABA       LGT RAIN  39  35  86 S16G25    29.98F WCI  30
MENOMINEE      LGT RAIN  40  36  86 S12       29.97F WCI  33
SAWYER-GWINN   FLURRIES  30  30 100 S17       29.92F WCI  18
$$
MIZ001>003-009>011-084-171600-
WESTERN UPPER MICHIGAN

CITY           SKY/WX    TMP DP  RH WIND       PRES   REMARKS
IRON MOUNTAIN  FRZ RAIN  32  30  92 SE12G22   29.90F VSB 1   WCI  23
HOUGHTON       MIX PCPN  34  28  79 S18G29    29.82F WCI  23
COPPER HARBOR    N/A     37  30  75 SW16G32   29.83F WCI  28
$$

ABBREVIATIONS USED IN REMARKS
   TC - TEMPERATURE IN CELSIUS
  WCI - WIND CHILL INDEX
   HX - HEAT INDEX
  VSB - VISIBILITY





USA.gov is the U.S. government's official web portal to all federal, state and local government web resources and services.